Woodland, NC

6:56 AM EST on February 06, 2016 (GMT -0500)
Tri County

Weather History for KASJ - November, 2013

Change the Weather History Date:

Sunday, November 24, 2013

  Actual Average (KEMV) Record (KEMV)
Temperature  
Mean Temperature 34 °F -  
Max Temperature 41 °F 61 °F 76 °F (1982)
Min Temperature 25 °F 34 °F 20 °F (1989)
Degree Days  
Heating Degree Days 32    
Moisture  
Dew Point 7 °F    
Average Humidity 35    
Maximum Humidity 49    
Minimum Humidity 23    
Precipitation  
Precipitation 0.00 in - - ()
Sea Level Pressure  
Sea Level Pressure 30.39 in    
Wind  
Wind Speed 6 mph (NNW)    
Max Wind Speed 14 mph    
Max Gust Speed 23 mph    
Visibility 10 miles    
Events      
Averages and records for this station are not official NWS values.
T = Trace of Precipitation, MM = Missing Value Source: NWS Daily Summary

Daily Weather History Graph

Daily Weather History Graph

Search for Another Location

Airport or City:

Trip Planner

Search our weather history database for the weather conditions in past years. The results will help you decide how hot, cold, wet, or windy it might be!

Date:

Astronomy

Nov. 24, 2013 Rise Set
Actual Time 6:55 AM EST 4:55 PM EST
Civil Twilight 6:27 AM EST 5:23 PM EST
Nautical Twilight 5:55 AM EST 5:55 PM EST
Astronomical Twilight 5:24 AM EST 6:25 PM EST
Moon 11:13 PM EST (11/24) 11:46 AM EST (11/24)
Length of Visible Light 10h 56m
Length of Day
10h 00m
Waning Gibbous, 61% of the Moon is Illuminated
Nov 24
Waning Gibbous
Nov 25
Last Quarter
Dec 2
New
Dec 9
First Quarter
Dec 17
Full

Hourly Weather History & Observations

Time (EST) Temp. Windchill Dew Point Humidity Pressure Visibility Wind Dir Wind Speed Gust Speed Precip Events Conditions
12:15 AM 41.7 °F - 19.0 °F 40% 30.14 in 10.0 mi Calm Calm - N/A   Clear
12:35 AM 42.4 °F 38.8 °F 18.5 °F 38% 30.15 in 10.0 mi NNW 5.8 mph - N/A   Clear
12:55 AM 42.1 °F 40.2 °F 18.9 °F 39% 30.15 in 10.0 mi NNW 3.5 mph - N/A   Clear
1:15 AM 41.4 °F 38.4 °F 19.4 °F 41% 30.16 in 10.0 mi NNW 4.6 mph - N/A   Clear
1:35 AM 41.4 °F 36.2 °F 18.5 °F 40% 30.17 in 10.0 mi NNW 8.1 mph - N/A   Clear
1:55 AM 41.0 °F 36.4 °F 18.1 °F 40% 30.18 in 10.0 mi NNW 6.9 mph - N/A   Clear
2:15 AM 40.5 °F 37.3 °F 18.1 °F 41% 30.18 in 10.0 mi NW 4.6 mph - N/A   Clear
2:35 AM 39.6 °F 36.3 °F 18.5 °F 43% 30.19 in 10.0 mi NNW 4.6 mph - N/A   Clear
2:55 AM 39.2 °F 34.2 °F 18.7 °F 44% 30.19 in 10.0 mi NNW 6.9 mph - N/A   Clear
3:15 AM 38.5 °F 32.1 °F 16.3 °F 41% 30.20 in 10.0 mi NNW 9.2 mph 16.1 mph N/A   Clear
3:35 AM 37.6 °F 32.3 °F 15.1 °F 40% 30.21 in 10.0 mi North 6.9 mph - N/A   Clear
3:55 AM 36.9 °F 30.7 °F 14.9 °F 41% 30.22 in 10.0 mi NNW 8.1 mph - N/A   Clear
4:15 AM 36.5 °F 27.8 °F 15.1 °F 42% 30.24 in 10.0 mi NNW 13.8 mph 21.9 mph N/A   Clear
4:35 AM 35.2 °F 27.6 °F 15.8 °F 45% 30.25 in 10.0 mi NNW 10.4 mph 20.7 mph N/A   Clear
4:55 AM 34.7 °F 25.5 °F 15.4 °F 45% 30.27 in 10.0 mi NNW 13.8 mph 20.7 mph N/A   Clear
5:15 AM 33.6 °F 28.4 °F 15.4 °F 47% 30.28 in 10.0 mi NNW 5.8 mph - N/A   Clear
5:35 AM 33.1 °F 24.4 °F 15.8 °F 49% 30.29 in 10.0 mi North 11.5 mph 17.3 mph N/A   Clear
5:55 AM 32.2 °F 23.2 °F 14.9 °F 49% 30.30 in 10.0 mi North 11.5 mph 17.3 mph N/A   Clear
6:15 AM 32.0 °F 25.6 °F 14.0 °F 48% 30.32 in 10.0 mi North 6.9 mph 17.3 mph N/A   Clear
6:35 AM 31.5 °F 23.5 °F 11.1 °F 43% 30.34 in 10.0 mi NNW 9.2 mph 16.1 mph N/A   Clear
6:55 AM 30.9 °F 22.2 °F 8.6 °F 39% 30.35 in 10.0 mi North 10.4 mph 18.4 mph N/A   Clear
7:15 AM 30.2 °F 25.4 °F 7.7 °F 39% 30.36 in 10.0 mi North 4.6 mph - N/A   Clear
7:35 AM 30.2 °F 21.9 °F 8.4 °F 40% 30.37 in 10.0 mi North 9.2 mph - N/A   Clear
7:55 AM 30.7 °F 22.6 °F 7.3 °F 37% 30.38 in 10.0 mi NNW 9.2 mph 18.4 mph N/A   Clear
8:35 AM 31.5 °F 23.5 °F 7.3 °F 36% 30.41 in 10.0 mi North 9.2 mph 17.3 mph N/A   Clear
8:55 AM 32.0 °F 24.2 °F 7.7 °F 36% 30.41 in 10.0 mi NNW 9.2 mph - N/A   Clear
9:15 AM 32.0 °F 23.0 °F 7.3 °F 36% 30.43 in 10.0 mi NNW 11.5 mph 18.4 mph N/A   Clear
9:35 AM 32.7 °F 25.0 °F 7.7 °F 35% 30.43 in 10.0 mi NNW 9.2 mph 17.3 mph N/A   Clear
9:55 AM 32.9 °F 25.9 °F 6.6 °F 33% 30.43 in 10.0 mi NNW 8.1 mph 18.4 mph N/A   Clear
10:15 AM 33.1 °F 26.1 °F 6.1 °F 32% 30.44 in 10.0 mi NNW 8.1 mph 19.6 mph N/A   Clear
10:35 AM 33.3 °F 25.7 °F 5.4 °F 31% 30.44 in 10.0 mi NNW 9.2 mph 16.1 mph N/A   Clear
10:55 AM 33.4 °F 25.4 °F 3.9 °F 29% 30.45 in 10.0 mi NNW 10.4 mph 19.6 mph N/A   Clear
11:15 AM 33.8 °F 25.8 °F 3.9 °F 28% 30.45 in 10.0 mi NNW 10.4 mph 20.7 mph N/A   Clear
11:35 AM 33.6 °F 26.8 °F 3.7 °F 28% 30.43 in 10.0 mi NNW 8.1 mph 16.1 mph N/A   Clear
11:55 AM 34.3 °F 26.5 °F 3.9 °F 28% 30.43 in 10.0 mi NNW 10.4 mph 16.1 mph N/A   Clear
12:15 PM 34.7 °F 29.6 °F 2.7 °F 26% 30.43 in 10.0 mi NW 5.8 mph 16.1 mph N/A   Clear
12:35 PM 34.7 °F 28.8 °F 1.9 °F 25% 30.43 in 10.0 mi WNW 6.9 mph 23.0 mph N/A   Clear
12:55 PM 35.1 °F 27.4 °F 2.5 °F 25% 30.41 in 10.0 mi NNW 10.4 mph 18.4 mph N/A   Clear
1:15 PM 35.4 °F 29.0 °F 1.9 °F 24% 30.40 in 10.0 mi NNW 8.1 mph 17.3 mph N/A   Clear
1:35 PM 35.1 °F 27.9 °F 0.9 °F 24% 30.40 in 10.0 mi North 9.2 mph 18.4 mph N/A   Clear
1:55 PM 36.0 °F 30.3 °F 2.1 °F 24% 30.40 in 10.0 mi NNW 6.9 mph 16.1 mph N/A   Clear
2:15 PM 35.2 °F 27.6 °F 0.3 °F 23% 30.41 in 10.0 mi NW 10.4 mph 16.1 mph N/A   Clear
2:35 PM 35.1 °F 26.9 °F 0.5 °F 23% 30.41 in 10.0 mi North 11.5 mph 17.3 mph N/A   Clear
2:55 PM 34.9 °F 27.1 °F 1.0 °F 24% 30.42 in 10.0 mi NW 10.4 mph 18.4 mph N/A   Clear
3:15 PM 34.9 °F 29.9 °F 1.0 °F 24% 30.42 in 10.0 mi NNW 5.8 mph - N/A   Clear
3:35 PM 34.3 °F 27.7 °F 0.7 °F 24% 30.42 in 10.0 mi NW 8.1 mph 18.4 mph N/A   Clear
3:55 PM 33.8 °F 26.4 °F 0.3 °F 24% 30.43 in 10.0 mi NNW 9.2 mph - N/A   Clear
4:15 PM 33.3 °F 28.9 °F 0.5 °F 25% 30.43 in 10.0 mi NNW 4.6 mph - N/A   Clear
4:35 PM 32.9 °F 25.9 °F 0.3 °F 25% 30.44 in 10.0 mi NNW 8.1 mph - N/A   Clear
4:55 PM 32.2 °F 28.9 °F 0.5 °F 26% 30.45 in 10.0 mi NW 3.5 mph - N/A   Clear
5:15 PM 32.0 °F - 0.7 °F 26% 30.46 in 10.0 mi Calm Calm - N/A   Clear
5:35 PM 31.6 °F 26.0 °F 0.9 °F 27% 30.46 in 10.0 mi NNW 5.8 mph - N/A   Clear
5:55 PM 31.1 °F - 1.0 °F 28% 30.48 in 10.0 mi Calm Calm - N/A   Clear
6:15 PM 29.8 °F 26.3 °F 2.1 °F 31% 30.49 in 10.0 mi NNW 3.5 mph - N/A   Clear
6:35 PM 27.9 °F - 4.3 °F 37% 30.50 in 10.0 mi Calm Calm - N/A   Clear
6:55 PM 27.9 °F - 3.6 °F 35% 30.50 in 10.0 mi Calm Calm - N/A   Clear
7:15 PM 27.1 °F - 5.9 °F 41% 30.51 in 10.0 mi Calm Calm - N/A   Clear
7:35 PM 27.9 °F 22.6 °F 3.9 °F 36% 30.52 in 10.0 mi North 4.6 mph - N/A   Clear
7:55 PM 27.1 °F 19.7 °F 4.8 °F 39% 30.52 in 10.0 mi North 6.9 mph - N/A   Clear
8:15 PM 28.0 °F 22.8 °F 3.0 °F 34% 30.52 in 10.0 mi NNW 4.6 mph - N/A   Clear
8:35 PM 27.7 °F - 3.2 °F 35% 30.53 in 10.0 mi Calm Calm - N/A   Clear
8:55 PM 26.8 °F - 4.1 °F 38% 30.54 in 10.0 mi Calm Calm - N/A   Clear
9:15 PM 27.9 °F 24.0 °F 3.2 °F 35% 30.54 in 10.0 mi North 3.5 mph - N/A   Clear
9:35 PM 27.3 °F 23.4 °F 3.2 °F 36% 30.54 in 10.0 mi North 3.5 mph - N/A   Clear
9:55 PM 26.4 °F 19.8 °F 3.9 °F 38% 30.54 in 10.0 mi North 5.8 mph - N/A   Clear
10:15 PM 25.7 °F 19.0 °F 5.0 °F 41% 30.55 in 10.0 mi North 5.8 mph - N/A   Clear
10:35 PM 26.1 °F - 4.1 °F 39% 30.56 in 10.0 mi Calm Calm - N/A   Clear
10:55 PM 25.7 °F - 4.5 °F 40% 30.55 in 10.0 mi Calm Calm - N/A   Clear
11:15 PM 25.3 °F 19.7 °F 5.2 °F 42% 30.54 in 10.0 mi NNE 4.6 mph - N/A   Clear
11:35 PM 26.6 °F 19.1 °F 4.5 °F 39% 30.55 in 10.0 mi North 6.9 mph - N/A   Clear
11:55 PM 25.7 °F 20.1 °F 5.4 °F 42% 30.55 in 10.0 mi North 4.6 mph - N/A   Clear